FW4490 Weather Reports


Display with metric or nautical units.
time (UTC)temp
F
wind
direction
speed
MPH
gust
MPH
rain 1hr
in
rain 24hr
in
rain mn
in
humidity
%
barometer
mb
20260503004903 55 180 0.0 0.0 0.00 0.00 0.00 56 1008.3
20260503004405 56 180 0.0 0.0 0.00 0.00 0.00 57 1008.2
20260503003904 56 180 0.0 0.0 0.00 0.00 0.00 56 1008.2
20260503003631 56 180 0.0 0.0 0.00 0.00 0.00 55 1008.2
20260503002903 56 180 0.0 0.0 0.00 0.00 0.00 57 1008.0
20260503002404 55 180 0.0 0.0 0.00 0.00 0.00 59 1007.8
20260503001904 55 180 0.0 0.0 0.00 0.00 0.00 60 1007.8
20260503001404 55 180 0.0 0.0 0.00 0.00 0.00 59 1007.9
20260503000903 55 180 0.0 0.0 0.00 0.00 0.00 59 1007.8
20260503000403 56 180 0.0 0.0 0.00 0.00 0.00 58 1007.7
20260502235902 56 180 0.0 0.0 0.00 0.00 0.00 58 1007.7
20260502235404 56 180 0.0 0.0 0.00 0.00 0.00 58 1007.7
20260502234902 56 180 0.0 0.0 0.00 0.00 0.00 57 1007.7
20260502234404 56 180 0.0 0.0 0.00 0.00 0.00 58 1007.7
20260502233902 56 180 0.0 0.0 0.00 0.00 0.00 58 1007.7
20260502233403 57 180 0.0 0.0 0.00 0.00 0.00 57 1007.7
20260502232902 57 180 0.0 0.0 0.00 0.00 0.00 56 1007.7
20260502232403 57 180 0.0 0.0 0.00 0.00 0.00 55 1007.7
20260502231902 58 180 0.0 0.0 0.00 0.00 0.00 55 1007.6
20260502231403 58 180 0.0 0.0 0.00 0.00 0.00 54 1007.6
20260502230901 58 180 0.0 0.0 0.00 0.00 0.00 54 1007.6
20260502230415 58 180 0.0 0.0 0.00 0.00 0.00 53 1007.6
20260502225901 59 180 0.0 0.0 0.00 0.00 0.00 53 1007.6
20260502225402 59 180 0.0 0.0 0.00 0.00 0.00 53 1007.7
20260502225120 59 180 0.0 0.0 0.00 0.00 0.00 54 1007.6
20260502224402 59 180 0.0 0.0 0.00 0.00 0.00 54 1007.5
20260502223900 59 180 0.0 0.0 0.00 0.00 0.00 54 1007.5
20260502223846 60 180 0.0 0.0 0.00 0.00 0.00 53 1007.5
20260502222901 60 180 0.0 0.0 0.00 0.00 0.00 51 1007.4
20260502222623 60 180 0.0 0.0 0.00 0.00 0.00 51 1007.4
20260502221900 61 180 0.0 0.0 0.00 0.00 0.00 51 1007.5
20260502221401 61 180 0.0 0.0 0.00 0.00 0.00 51 1007.3
20260502221125 61 180 0.0 0.0 0.00 0.00 0.00 50 1007.5
20260502220625 62 180 0.0 0.0 0.00 0.00 0.00 50 1007.5
20260502215900 62 180 0.0 0.0 0.00 0.00 0.00 50 1007.5
20260502215401 61 180 0.0 0.0 0.00 0.00 0.00 51 1007.7
20260502214859 61 180 0.0 0.0 0.00 0.00 0.00 52 1007.7
20260502214622 61 180 0.0 0.0 0.00 0.00 0.00 52 1007.7
20260502213859 61 180 0.0 0.0 0.00 0.00 0.00 53 1007.6
20260502213626 61 180 0.0 0.0 0.00 0.00 0.00 53 1007.7
20260502212859 61 180 0.0 0.0 0.00 0.00 0.00 54 1007.8
20260502212401 60 180 0.0 0.0 0.00 0.00 0.00 55 1007.8
20260502211859 60 180 0.0 0.0 0.00 0.00 0.00 56 1007.8
20260502211400 59 180 0.0 0.0 0.00 0.00 0.00 57 1007.8
20260502211121 59 180 0.0 0.0 0.00 0.00 0.00 60 1007.8
20260502210400 59 180 0.0 0.0 0.00 0.00 0.00 61 1007.8
20260502205859 58 180 0.0 0.0 0.00 0.00 0.00 62 1007.8
20260502205400 58 180 0.0 0.0 0.00 0.00 0.00 64 1007.8
20260502204858 56 180 0.0 0.0 0.00 0.00 0.00 67 1007.8
20260502204359 55 180 0.0 0.0 0.00 0.00 0.00 68 1007.8
20260502203859 55 180 0.0 0.0 0.00 0.00 0.00 68 1007.9
20260502203619 55 180 0.0 0.0 0.00 0.00 0.00 68 1008.0
20260502202858 55 180 0.0 0.0 0.00 0.00 0.00 68 1007.9
20260502202359 55 180 0.0 0.0 0.00 0.00 0.00 68 1007.9
20260502201858 55 180 0.0 0.0 0.00 0.00 0.00 69 1008.0
20260502201621 55 180 0.0 0.0 0.00 0.00 0.00 68 1007.9
20260502200858 55 180 0.0 0.0 0.00 0.00 0.00 69 1007.8
20260502200357 55 180 0.0 0.0 0.00 0.00 0.00 69 1007.8
20260502195856 55 180 0.0 0.0 0.00 0.00 0.00 69 1007.9
20260502195357 55 180 0.0 0.0 0.00 0.00 0.00 68 1007.8
20260502194856 55 180 0.0 0.0 0.00 0.00 0.00 69 1007.8
20260502194357 55 180 0.0 0.0 0.00 0.00 0.00 69 1007.8
20260502193856 55 180 0.0 0.0 0.00 0.00 0.00 69 1007.7
20260502193356 55 180 0.0 0.0 0.00 0.00 0.00 68 1007.7
20260502193119 55 180 0.0 0.0 0.00 0.00 0.00 68 1007.7
20260502192357 55 180 0.0 0.0 0.00 0.00 0.00 68 1007.7
20260502192116 55 180 0.0 0.0 0.00 0.00 0.00 68 1007.7
20260502191356 55 180 0.0 0.0 0.00 0.00 0.00 69 1007.7
20260502190856 55 180 0.0 0.0 0.00 0.00 0.00 69 1007.7
20260502190355 55 180 0.0 0.0 0.00 0.00 0.00 68 1007.7
20260502185855 55 180 0.0 0.0 0.00 0.00 0.00 67 1007.7
20260502185356 56 180 0.0 0.0 0.00 0.00 0.00 67 1007.7
20260502184855 56 180 0.0 0.0 0.00 0.00 0.00 67 1007.8
20260502184355 56 180 0.0 0.0 0.00 0.00 0.00 67 1007.7
20260502183854 56 180 0.0 0.0 0.00 0.00 0.00 66 1007.6
20260502183616 56 180 0.0 0.0 0.00 0.00 0.00 67 1007.7
20260502182855 56 180 0.0 0.0 0.00 0.00 0.00 67 1007.7
20260502182355 56 180 0.0 0.0 0.00 0.00 0.00 67 1007.7
20260502181854 55 180 0.0 0.0 0.00 0.00 0.00 68 1007.7
20260502181621 55 180 0.0 0.0 0.00 0.00 0.00 68 1007.6
20260502180853 56 180 0.0 0.0 0.00 0.00 0.00 68 1007.6
20260502180355 56 180 0.0 0.0 0.00 0.00 0.00 67 1007.6
20260502170354 57 180 0.0 0.0 0.00 0.00 0.00 65 1007.7
20260502164116 57 180 0.0 0.0 0.00 0.00 0.00 63 1008.0
20260502163354 58 180 0.0 0.0 0.00 0.00 0.00 63 1008.1
20260502162851 58 180 0.0 0.0 0.00 0.00 0.00 62 1008.2
20260502162353 58 180 0.0 0.0 0.00 0.00 0.00 62 1008.1
20260502161851 58 180 0.0 0.0 0.00 0.00 0.00 62 1008.3
20260502161353 58 180 0.0 0.0 0.00 0.00 0.00 62 1008.4
20260502160851 58 180 0.0 0.0 0.00 0.00 0.00 62 1008.4
20260502160352 58 180 0.0 0.0 0.00 0.00 0.00 61 1008.6
20260502160115 58 180 0.0 0.0 0.00 0.00 0.00 61 1008.6
20260502151850 61 180 0.0 0.0 0.00 0.00 0.00 54 1009.1
20260502151352 61 180 0.0 0.0 0.00 0.00 0.00 54 1009.2
20260502150850 61 180 0.0 0.0 0.00 0.00 0.00 54 1009.3
20260502150351 61 180 0.0 0.0 0.00 0.00 0.00 55 1009.4
20260502130545 68 180 0.0 0.0 0.00 0.00 0.00 42 1010.5
20260502123346 68 180 0.0 0.0 0.00 0.00 0.00 42 1010.9
20260502122846 67 180 0.0 0.0 0.00 0.00 0.00 43 1010.9
20260502122346 66 180 0.0 21.0 0.00 0.00 0.00 43 1011.0
20260502121846 67 180 0.0 21.0 0.00 0.00 0.00 43 1011.1
20260502121346 66 180 0.0 0.0 0.00 0.00 0.00 45 1011.1
20260502120846 66 180 0.0 0.0 0.00 0.00 0.00 44 1011.2
20260502120343 66 180 0.0 0.0 0.00 0.00 0.00 43 1011.3
20260502115844 67 180 0.0 0.0 0.00 0.00 0.00 42 1011.3
20260502115344 67 180 0.0 0.0 0.00 0.00 0.00 43 1011.4
20260502114844 66 180 0.0 0.0 0.00 0.00 0.00 44 1011.4
20260502114349 67 180 0.0 0.0 0.00 0.00 0.00 42 1011.4
20260502113844 67 180 0.0 0.0 0.00 0.00 0.00 41 1011.4
20260502113343 67 180 0.0 0.0 0.00 0.00 0.00 41 1011.4
20260502112844 67 180 0.0 0.0 0.00 0.00 0.00 42 1011.5
20260502112343 67 180 0.0 0.0 0.00 0.00 0.00 41 1011.6
20260502111843 67 180 0.0 0.0 0.00 0.00 0.00 41 1011.7
20260502111342 66 180 0.0 0.0 0.00 0.00 0.00 43 1011.6
20260502110842 66 180 0.0 0.0 0.00 0.00 0.00 44 1011.7
20260502110341 65 180 0.0 0.0 0.00 0.00 0.00 44 1011.9
20260502105841 66 180 0.0 0.0 0.00 0.00 0.00 43 1011.8
20260502105342 66 180 0.0 0.0 0.00 0.00 0.00 42 1011.9
20260502104841 66 180 0.0 0.0 0.00 0.00 0.00 42 1012.0
20260502104608 66 180 0.0 0.0 0.00 0.00 0.00 41 1012.1
20260502103841 66 180 0.0 0.0 0.00 0.00 0.00 42 1012.1
20260502103341 66 180 0.0 0.0 0.00 0.00 0.00 42 1012.2
20260502102844 65 180 0.0 0.0 0.00 0.00 0.00 42 1012.2
20260502102344 65 180 0.0 0.0 0.00 0.00 0.00 42 1012.3
20260502101840 64 180 0.0 0.0 0.00 0.00 0.00 43 1012.3
20260502101341 64 180 0.0 0.0 0.00 0.00 0.00 43 1012.4
20260502100840 65 180 0.0 0.0 0.00 0.00 0.00 43 1012.4
20260502100341 64 180 0.0 0.0 0.00 0.00 0.00 42 1012.4
20260502091340 62 180 0.0 0.0 0.00 0.00 0.00 44 1012.9
20260502090839 62 180 0.0 0.0 0.00 0.00 0.00 46 1012.9
20260502090339 62 180 0.0 0.0 0.00 0.00 0.00 44 1012.9
20260502070836 57 180 0.0 0.0 0.00 0.00 0.00 53 1013.7
20260502070336 57 180 0.0 0.0 0.00 0.00 0.00 54 1013.8
20260502065836 56 180 0.0 0.0 0.00 0.00 0.00 54 1013.8
20260502065336 57 180 0.0 0.0 0.00 0.00 0.00 55 1013.7
20260502064837 56 180 0.0 0.0 0.00 0.00 0.00 54 1013.8
20260502064336 57 180 0.0 0.0 0.00 0.00 0.00 53 1013.8
20260502063836 57 180 0.0 0.0 0.00 0.00 0.00 54 1013.8
20260502063336 58 180 0.0 0.0 0.00 0.00 0.00 51 1013.9
20260502062836 58 180 0.0 0.0 0.00 0.00 0.00 51 1013.9
20260502062336 57 180 0.0 0.0 0.00 0.00 0.00 52 1013.9
20260502061836 57 180 0.0 11.0 0.00 0.00 0.00 52 1013.9
20260502061556 57 180 0.0 11.0 0.00 0.00 0.00 52 1014.0
20260502060836 57 180 0.0 0.0 0.00 0.00 0.00 52 1014.0
20260502060335 57 180 0.0 0.0 0.00 0.00 0.00 53 1014.0
20260502055835 57 180 0.0 0.0 0.00 0.00 0.00 53 1014.1
20260502055335 57 180 0.0 0.0 0.00 0.00 0.00 53 1014.1
20260502055057 57 180 0.0 0.0 0.00 0.00 0.00 52 1014.2
20260502054559 57 180 0.0 0.0 0.00 0.00 0.00 52 1014.2
20260502053835 57 180 0.0 0.0 0.00 0.00 0.00 53 1014.2
20260502053334 57 180 0.0 0.0 0.00 0.00 0.00 53 1014.2
20260502052835 57 180 0.0 0.0 0.00 0.00 0.00 53 1014.2
20260502052558 56 180 0.0 0.0 0.00 0.00 0.00 53 1014.3
20260502051834 56 180 0.0 0.0 0.00 0.00 0.00 54 1014.3
20260502051334 56 180 0.0 0.0 0.00 0.00 0.00 54 1014.3
20260502051104 56 180 0.0 0.0 0.00 0.00 0.00 53 1014.3
20260502050334 56 180 0.0 0.0 0.00 0.00 0.00 54 1014.3
20260502050055 56 180 0.0 0.0 0.00 0.00 0.00 54 1014.3
20260502045559 56 180 0.0 0.0 0.00 0.00 0.00 54 1014.3
20260502044834 56 180 0.0 0.0 0.00 0.00 0.00 54 1014.3
20260502044556 56 180 0.0 0.0 0.00 0.00 0.00 55 1014.3
20260502043833 56 180 0.0 0.0 0.00 0.00 0.00 55 1014.4
20260502043333 55 180 0.0 0.0 0.00 0.00 0.00 55 1014.4
20260502043100 55 180 0.0 0.0 0.00 0.00 0.00 55 1014.3
20260502042334 55 180 0.0 0.0 0.00 0.00 0.00 56 1014.4
20260502041832 55 180 0.0 0.0 0.00 0.00 0.00 56 1014.4
20260502041333 55 180 0.0 0.0 0.00 0.00 0.00 56 1014.4
20260502040832 55 180 0.0 0.0 0.00 0.00 0.00 56 1014.4
20260502040333 55 180 0.0 0.0 0.00 0.00 0.00 57 1014.4
20260502035832 55 180 0.0 0.0 0.00 0.00 0.00 56 1014.5
20260502035556 54 180 0.0 0.0 0.00 0.00 0.00 57 1014.4
20260502034832 54 180 0.0 0.0 0.00 0.00 0.00 57 1014.5
20260502034559 54 180 0.0 0.0 0.00 0.00 0.00 57 1014.5
20260502034052 54 180 0.0 0.0 0.00 0.00 0.00 58 1014.6
20260502033332 53 180 0.0 0.0 0.00 0.00 0.00 59 1014.6
20260502033315 53 180 0.0 0.0 0.00 0.00 0.00 59 1014.7
20260502032332 53 180 0.0 0.0 0.00 0.00 0.00 59 1014.6
20260502031832 53 180 0.0 0.0 0.00 0.00 0.00 59 1014.8
20260502031331 53 180 0.0 0.0 0.00 0.00 0.00 59 1014.7
20260502030832 53 180 0.0 0.0 0.00 0.00 0.00 60 1014.7
20260502030332 53 180 0.0 0.0 0.00 0.00 0.00 60 1014.8
20260502025832 53 180 0.0 0.0 0.00 0.00 0.00 59 1014.8
20260502025331 53 180 0.0 0.0 0.00 0.00 0.00 59 1014.9
20260502024831 53 180 0.0 0.0 0.00 0.00 0.00 59 1015.0
20260502024549 53 180 0.0 0.0 0.00 0.00 0.00 58 1015.0
20260502023831 53 180 0.0 0.0 0.00 0.00 0.00 58 1015.0
20260502023332 54 180 0.0 0.0 0.00 0.00 0.00 58 1014.9
20260502022832 54 180 0.0 0.0 0.00 0.00 0.00 57 1015.0
20260502022333 54 180 0.0 0.0 0.00 0.00 0.00 58 1015.0
20260502021832 54 180 0.0 0.0 0.00 0.00 0.00 58 1015.0
20260502021332 54 180 0.0 0.0 0.00 0.00 0.00 57 1015.1
20260502020832 54 180 0.0 0.0 0.00 0.00 0.00 56 1015.1
20260502020814 54 180 0.0 0.0 0.00 0.00 0.00 56 1015.1
20260502015832 54 180 0.0 0.0 0.00 0.00 0.00 56 1015.1
20260502015331 54 180 0.0 0.0 0.00 0.00 0.00 56 1015.1
20260502014830 54 180 0.0 0.0 0.00 0.00 0.00 56 1015.1
20260502014331 54 180 0.0 0.0 0.00 0.00 0.00 55 1015.2
20260502013831 55 180 0.0 0.0 0.00 0.00 0.00 54 1015.3
20260502013331 55 180 0.0 0.0 0.00 0.00 0.00 54 1015.3
20260502012831 55 180 0.0 0.0 0.00 0.00 0.00 54 1015.3
20260502012331 55 180 0.0 0.0 0.00 0.00 0.00 54 1015.4
20260502011831 55 180 0.0 0.0 0.00 0.00 0.00 54 1015.4
20260502011331 55 180 0.0 0.0 0.00 0.00 0.00 54 1015.4
20260502010826 55 180 0.0 0.0 0.00 0.00 0.00 54 1015.4
20260502010325 55 180 0.0 0.0 0.00 0.00 0.00 54 1015.4
20260502005815 55 180 0.0 0.0 0.00 0.00 0.00 53 1015.5
20260502005308 56 180 0.0 0.0 0.00 0.00 0.00 53 1015.5